Broomfield, CO

9:43 PM MDT on May 25, 2017 (GMT -0600)
Jeffco

Weather History for KBJC - October, 2014

Change the Weather History Date:

Tuesday, October 21, 2014

  Actual Average Record
Temperature  
Mean Temperature 62 °F -  
Max Temperature 75 °F 60 °F 82 °F (1992)
Min Temperature 50 °F 38 °F 25 °F (1987)
Degree Days  
Heating Degree Days 2    
Growing Degree Days 12 (Base 50)    
Moisture  
Dew Point 36 °F    
Average Humidity 44    
Maximum Humidity 67    
Minimum Humidity 23    
Precipitation  
Precipitation 0.00 in - - ()
Sea Level Pressure  
Sea Level Pressure 30.02 in    
Wind  
Wind Speed 5 mph (WNW)    
Max Wind Speed 29 mph    
Max Gust Speed 41 mph    
Visibility 10 miles    
Events Rain , Thunderstorm    
Averages and records for this station are not official NWS values.
T = Trace of Precipitation, MM = Missing Value Source: NWS Daily Summary

Daily Weather History Graph

Daily Weather History Graph

Search for Another Location

Airport or City:

Trip Planner

Search our weather history database for the weather conditions in past years. The results will help you decide how hot, cold, wet, or windy it might be!

Date:

Astronomy

Oct. 21, 2014 Rise Set
Actual Time 7:17 AM MDT 6:12 PM MDT
Civil Twilight 6:49 AM MDT 6:39 PM MDT
Nautical Twilight 6:18 AM MDT 7:11 PM MDT
Astronomical Twilight 5:46 AM MDT 7:42 PM MDT
Moon 5:04 AM MDT (10/21) 5:07 PM MDT (10/21)
Length of Visible Light 11h 49m
Length of Day
10h 54m
Waning Crescent, 5% of the Moon is Illuminated
Oct 21
Waning Crescent
Oct 23
New
Oct 30
First Quarter
Nov 6
Full
Nov 14
Last Quarter

Hourly Weather History & Observations

Time (MDT) Temp. Dew Point Humidity Pressure Visibility Wind Dir Wind Speed Gust Speed Precip Events Conditions
12:15 AM 55.4 °F 35.6 °F 47% 30.06 in 10.0 mi South 5.8 mph - N/A   Clear
12:35 AM 55.4 °F 35.6 °F 47% 30.06 in 10.0 mi SSW 3.5 mph - N/A   Clear
12:55 AM 53.6 °F 35.6 °F 51% 30.06 in 10.0 mi SW 4.6 mph - N/A   Clear
1:15 AM 51.8 °F 35.6 °F 54% 30.06 in 10.0 mi WSW 4.6 mph - N/A   Clear
1:35 AM 53.6 °F 35.6 °F 51% 30.06 in 10.0 mi West 5.8 mph - N/A   Clear
1:54 AM 55.4 °F 33.8 °F 44% 30.06 in 10.0 mi West 3.5 mph - N/A   Clear
2:15 AM 55.4 °F 33.8 °F 44% 30.05 in 10.0 mi Calm Calm - N/A   Clear
2:35 AM 55.4 °F 33.8 °F 44% 30.05 in 10.0 mi WNW 3.5 mph - N/A   Clear
2:54 AM 53.6 °F 33.8 °F 47% 30.05 in 10.0 mi Calm Calm - N/A   Clear
3:14 AM 53.6 °F 35.6 °F 51% 30.04 in 10.0 mi NW 8.1 mph - N/A   Clear
3:35 AM 53.6 °F 35.6 °F 51% 30.04 in 10.0 mi Calm Calm - N/A   Clear
3:55 AM 51.8 °F 35.6 °F 54% 30.04 in 10.0 mi Calm Calm - N/A   Clear
4:15 AM 53.6 °F 35.6 °F 51% 30.05 in 10.0 mi Calm Calm - N/A   Clear
4:34 AM 53.6 °F 35.6 °F 51% 30.05 in 10.0 mi Calm Calm - N/A   Clear
4:55 AM 51.8 °F 35.6 °F 54% 30.04 in 10.0 mi Calm Calm - N/A   Clear
5:15 AM 50.0 °F 35.6 °F 58% 30.05 in 10.0 mi WNW 3.5 mph - N/A   Clear
5:35 AM 51.8 °F 35.6 °F 54% 30.04 in 10.0 mi West 4.6 mph - N/A   Clear
5:47 AM 50.0 °F 37.4 °F 62% 30.05 in 30.0 mi WNW 4.6 mph - N/A   Clear
5:55 AM 53.6 °F 35.6 °F 51% 30.05 in 10.0 mi Calm Calm - N/A   Clear
6:50 AM 53.6 °F 35.6 °F 51% 30.04 in 50.0 mi Calm Calm - N/A   Partly Cloudy
7:47 AM 50.0 °F 35.6 °F 58% 30.04 in 70.0 mi WSW 4.6 mph - N/A   Mostly Cloudy
8:50 AM 57.2 °F 35.6 °F 44% 30.05 in 70.0 mi Calm Calm - N/A   Mostly Cloudy
9:47 AM 59.0 °F 35.6 °F 42% 30.05 in 70.0 mi WNW 4.6 mph - N/A   Mostly Cloudy
10:47 AM 68.0 °F 35.6 °F 30% 30.04 in 70.0 mi ENE 4.6 mph - N/A   Mostly Cloudy
11:47 AM 71.6 °F 35.6 °F 27% 30.02 in 70.0 mi NE 5.8 mph - N/A   Mostly Cloudy
12:47 PM 73.4 °F 35.6 °F 25% 30.00 in 70.0 mi NE 3.5 mph - N/A   Mostly Cloudy
1:47 PM 73.4 °F 35.6 °F 25% 29.97 in 70.0 mi North 4.6 mph - N/A   Mostly Cloudy
2:46 PM 75.2 °F 35.6 °F 24% 29.94 in 70.0 mi Calm Calm - N/A   Mostly Cloudy
3:50 PM 73.4 °F 33.8 °F 23% 29.94 in 50.0 mi Calm Calm - N/A   Mostly Cloudy
4:53 PM 69.8 °F 39.2 °F 33% 29.92 in 50.0 mi WNW 8.1 mph - N/A   Mostly Cloudy
5:52 PM 66.2 °F 37.4 °F 35% 29.92 in 50.0 mi WNW 8.1 mph - N/A   Mostly Cloudy
6:49 PM 66.2 °F 37.4 °F 35% 29.93 in 30.0 mi NW 6.9 mph - N/A   Mostly Cloudy
7:48 PM 66.2 °F 35.6 °F 32% 29.95 in 25.0 mi WNW 19.6 mph - N/A   Mostly Cloudy
8:47 PM 59.0 °F 37.4 °F 45% 29.97 in 30.0 mi West 28.8 mph 41.4 mph N/A   Mostly Cloudy
9:46 PM 59.0 °F 39.2 °F 48% 29.96 in 30.0 mi West 25.3 mph 34.5 mph N/A   Mostly Cloudy
11:15 PM 60.8 °F 35.6 °F 39% 29.97 in 10.0 mi Calm Calm - N/A   Overcast
11:35 PM 60.8 °F 37.4 °F 42% 30.00 in 10.0 mi WSW 4.6 mph - N/A Thunderstorm Mostly Cloudy
11:55 PM 55.4 °F 44.6 °F 67% 29.99 in 10.0 mi ESE 9.2 mph - N/A Rain Light Rain